Location: Rounton
(54.4000°N, 1.3500°W)
Time: 04:08:57
(UTC+00:00)

Vanguard 1 - Pass Details

Date: 08 December 2021
Orbit: 652 x 3830 km, 34.2° (Epoch: 17 January)

Event Time Altitude Azimuth Distance (km) Brightness Sun altitude
Exits shadow 04:34:41 27° 229° (SW) 5,218 13.3 -30.2°
Maximum altitude 04:38:05 28° 216° (SW) 4,963 13.2 -29.7°
Drops below altitude 10° 04:51:07 10° 165° (SSE) 5,288 13.9 -27.8°
Sets 04:55:20 0° 154° (SSE) 5,855 14.4 -27.2°
